#timestamp,LO_Frequency,Hit,StdDev 
1609045215.7,286047005.5,N
1609045235.5,286047004.8,N
1609045255.3,286047007.0,Y
1609045275.2,286047005.7,P
1609045295.9,286047005.6,P
1609045315.7,286047005.1,P
1609045335.6,286047004.8,Y
1609045355.4,286046999.9,P
1609045375.2,286047000.6,N
1609045395.1,286047002.8,N
1609045396.0,286047002.8,N
1609045415.8,286046999.8,N
1609045435.6,286047001.6,N
1609045455.5,286047003.5,N
1609045475.3,286047006.0,Y
1609045495.1,286047002.8,P
1609045515.9,286047001.5,P
1609045535.7,286047001.4,N
1609045555.5,286047003.7,Y
1609045575.4,286047001.6,P
1609045595.2,286047001.6,P
1609045615.0,286046999.8,N
1609045615.9,286046999.8,N
1609045635.8,286047002.4,N
1609045655.6,286047002.0,N
1609045675.4,286047002.1,N
1609045695.3,286047006.0,Y
1609045715.1,286047003.8,P
1609045716.0,286047003.8,P
1609045735.8,286047003.8,P
1609045755.7,286047003.7,Y
1609045775.5,286047000.2,P
1609045795.3,286046999.7,N
1609045815.1,286047002.7,N
1609045835.9,286047004.1,N
1609045855.7,286047003.1,N
1609045875.5,286047002.9,N
1609045895.4,286047004.1,N
1609045915.2,286047003.0,N
1609045935.0,286047003.4,N
1609045935.9,286047003.4,N
1609045955.8,286047004.8,Y
1609045975.6,286047004.3,P
1609045995.4,286047004.1,P
1609046015.3,286047002.9,P
1609046035.1,286047005.2,Y
1609046055.8,286047002.4,P
1609046075.7,286047001.9,P
1609046095.5,286047004.1,P
1609046115.3,286047005.7,Y
1609046135.2,286047002.2,P
1609046155.9,286047002.2,P
1609046175.7,286047002.0,P
1609046195.6,286047002.0,Y
1609046215.4,286047000.4,P
1609046235.2,286047000.5,N
1609046255.1,286047002.8,P
1609046256.0,286047002.8,N
1609046275.8,286047001.3,N
1609046295.6,286047001.8,N
1609046315.5,286047002.0,N
1609046335.3,286047003.5,Y
1609046355.1,286047001.9,P
1609046375.9,286047001.3,P
1609046395.7,286047001.7,P
1609046415.5,286047003.7,Y
1609046435.4,286047001.3,P
1609046455.2,286047003.2,P
1609046475.0,286047006.0,P
1609046475.9,286047006.0,Y
1609046495.8,286046999.7,P
1609046515.6,286047001.7,N
1609046535.4,286047001.6,N
1609046555.3,286047001.5,N
1609046575.1,286047003.5,Y
1609046576.0,286047003.5,P
1609046595.8,286047003.7,P
1609046615.7,286047004.0,P
1609046635.5,286047003.2,Y
1609046655.3,286047001.5,P
1609046675.2,286047001.9,N
1609046695.9,286047003.9,P
1609046715.7,286047006.0,Y
1609046735.6,286047001.6,P
1609046755.4,286047002.6,P
1609046775.2,286047000.2,N
1609046795.1,286047002.7,N
1609046796.0,286047002.7,N
1609046815.8,286047004.4,Y
1609046835.6,286047002.5,P
1609046855.5,286047001.4,P
1609046875.3,286047003.9,P
1609046895.1,286047003.8,Y
1609046915.9,286047001.9,P
1609046935.7,286047003.8,P
1609046955.5,286047004.3,P
1609046975.4,286047003.5,Y
1609046995.2,286046999.8,P
1609047015.0,286047002.8,N
1609047015.9,286047002.8,N
1609047035.8,286047000.0,N
1609047055.6,286047002.0,N
1609047075.4,286047001.5,N
1609047095.3,286047004.3,Y
1609047115.1,286047002.5,P
1609047116.0,286047002.5,P
1609047135.8,286047002.5,P
1609047155.7,286047002.0,Y
1609047175.5,286047002.8,P
1609047195.3,286047002.3,P
1609047215.1,286047002.3,P
1609047235.9,286047002.3,Y
1609047255.7,286046998.3,P
1609047275.6,286046998.8,N
1609047295.4,286047000.6,N
1609047315.2,286047000.8,N
1609047335.0,286047000.3,N
1609047336.0,286047000.3,N
1609047355.8,286047000.5,N
1609047375.6,286047002.7,N
1609047395.4,286047002.8,N
1609047415.3,286047003.9,N
1609047435.1,286047004.4,N
1609047455.8,286047004.3,N
1609047475.7,286047002.3,N
1609047495.5,286047001.3,N
1609047515.3,286047001.5,N
1609047535.2,286047001.7,N
1609047555.9,286047001.9,N
1609047575.7,286047004.1,N
1609047595.6,286047001.7,N
1609047615.4,286047004.0,N
1609047635.2,286047004.2,N
1609047655.1,286047002.9,N
1609047656.0,286047002.9,N
1609047675.8,286047003.2,N
1609047695.6,286047003.7,N
1609047715.5,286047004.4,N
1609047735.3,286047001.4,N
1609047755.1,286047004.4,N
1609047775.9,286047004.4,N
1609047795.7,286047003.3,N
1609047815.5,286047003.8,N
1609047835.3,286047004.4,N
1609047855.2,286047001.3,N
1609047875.0,286047003.9,N
1609047875.9,286047003.9,N
1609047895.7,286047001.8,N
1609047915.6,286047002.1,N
1609047935.4,286047004.1,Y
1609047955.2,286047000.5,P
1609047975.1,286047001.2,N
1609047976.0,286047001.2,N
1609047995.8,286046998.2,N
1609048015.6,286047000.9,N
1609048035.5,286047000.3,N
1609048055.3,286047001.1,N
1609048075.1,286047000.8,N
1609048095.9,286047000.8,N
1609048115.7,286046998.3,N
1609048135.5,286046998.9,N
1609048155.4,286046998.7,N
1609048175.2,286046998.8,N
1609048195.0,286046998.9,N
1609048195.9,286046998.9,N
1609048215.8,286046999.1,N
1609048235.6,286046998.8,N
1609048255.4,286046999.1,N
1609048275.3,286046998.9,N
1609048295.1,286046999.1,N
1609048296.0,286046999.1,N
1609048315.8,286046999.4,N
1609048335.7,286046999.5,N
1609048355.5,286046997.1,N
1609048375.3,286046994.9,Y
1609048395.2,286046997.7,P
1609048415.9,286046997.8,N
1609048435.7,286046997.8,N
1609048455.6,286046995.0,Y
1609048475.4,286046997.0,P
1609048495.2,286046999.2,N
1609048515.1,286046999.2,N
1609048516.0,286046999.2,N
1609048535.8,286046999.3,N
1609048555.6,286046997.2,Y
1609048575.5,286046999.3,P
1609048595.3,286046998.7,P
1609048615.1,286046999.4,N
1609048635.9,286046996.5,Y
1609048655.7,286046997.0,P
1609048675.5,286046999.3,N
1609048695.4,286046996.7,P
1609048715.2,286046996.5,Y
1609048735.0,286047000.8,P
1609048735.9,286047000.8,N
1609048755.8,286047000.5,N
1609048775.6,286047001.0,N
1609048795.4,286046998.8,N
